Regional Weather Roundup
Issued by NWS

Home | Current Version | Previous Version | Graphics & Text | Print | Product List | Glossary On
Versions: 1 2 3 4 5 6 7 8 9 10 11 12 13 14 15 16 17 18 19 20 21 22 23 24 25 26 27 28 29 30 31 32 33 34 35 36 37 38 39 40 41 42 43 44 45 46 47 48 49 50
955
ASUS43 KLMK 170610
RWRKY
KENTUCKY REGIONAL WEATHER ROUNDUP
NATIONAL WEATHER SERVICE LOUISVILLE KY
100 AM EST TUE JAN 17 2017

NOTE "FAIR" INDICATES FEW OR NO CLOUDS BELOW 12,000 FEET
WITH NO SIGNIFICANT WEATHER AND/OR OBSTRUCTIONS TO VISIBILITY.

KYZ001>023-026-027-061>063-070>075-170700-
WESTERN AND SOUTH CENTRAL KENTUCKY

CITY           SKY/WX    TMP DP  RH WIND       PRES   REMARKS
PADUCAH        CLOUDY    61  58  90 S8        29.91F
HENDERSON      CLOUDY    61  55  82 S14       29.93S
OWENSBORO      LGT RAIN  59  58  96 S18G25    29.94F
HOPKINSVILLE   LGT RAIN  60  60 100 S8        29.95F
BOWLING GREEN  LGT RAIN  60  56  86 S10       30.01F
GLASGOW        LGT RAIN  57  57 100 S6        30.02F
$$

KYZ024-025-028>034-038-045-046-053-170700-
NORTH CENTRAL KENTUCKY

CITY           SKY/WX    TMP DP  RH WIND       PRES   REMARKS
LOUISVILLE/SDF LGT RAIN  57  54  89 S9        29.99F
LOUISVILLE/LOU HVY RAIN  57  54  89 SE6       30.00F FOG
FORT KNOX      LGT RAIN  57  57  99 S20G26    29.98S
$$

KYZ035>037-039>044-047>052-055>060-089>105-170700-
NORTHEAST KENTUCKY

CITY           SKY/WX    TMP DP  RH WIND       PRES   REMARKS
LEXINGTON      LGT RAIN  58  53  84 S8        30.06S
COVINGTON      LGT RAIN  54  53  97 S12       30.00F
FRANKFORT      RAIN      57  53  86 S7        30.03F FOG
$$

KYZ054-064>069-076>088-106>120-170700-
SOUTHEAST KENTUCKY

CITY           SKY/WX    TMP DP  RH WIND       PRES   REMARKS
JACKSON        CLOUDY    59  49  69 VRB6      30.09F
LONDON         CLOUDY    60  50  69 S8        30.09F
SOMERSET       LGT RAIN  57  52  82 S7        30.10F
MIDDLESBORO    CLOUDY    59  53  80 S8        30.14F
MONTICELLO     LGT RAIN  60  55  83 SE8       30.09F
$$





USA.gov is the U.S. government's official web portal to all federal, state and local government web resources and services.